TimeMDT,TemperatureF,Dew PointF,Humidity,Sea Level PressureIn,VisibilityMPH,Wind Direction,Wind SpeedMPH,Gust SpeedMPH,PrecipitationIn,Events,Conditions,WindDirDegrees,DateUTC
12:53 AM,52.0,34.0,50,30.07,10.0,Calm,Calm,-,N/A,,Clear,0,2013-05-10 06:53:00
2:53 AM,48.9,34.0,56,30.09,10.0,SE,3.5,-,N/A,,Clear,140,2013-05-10 08:53:00
3:53 AM,48.0,33.1,56,30.12,10.0,Calm,Calm,-,N/A,,Clear,0,2013-05-10 09:53:00
4:53 AM,45.0,34.0,65,30.12,10.0,Calm,Calm,-,N/A,,Clear,0,2013-05-10 10:53:00
6:53 AM,45.0,33.1,63,30.15,10.0,Calm,Calm,-,N/A,,Clear,0,2013-05-10 12:53:00
7:53 AM,51.1,34.0,52,30.16,10.0,Calm,Calm,-,N/A,,Clear,0,2013-05-10 13:53:00
8:53 AM,55.9,36.0,47,30.16,10.0,ESE,3.5,-,N/A,,Clear,120,2013-05-10 14:53:00
9:53 AM,61.0,37.9,42,30.15,10.0,Calm,Calm,-,N/A,,Clear,0,2013-05-10 15:53:00
11:53 AM,71.1,35.1,27,30.14,10.0,Variable,5.8,-,N/A,,Clear,0,2013-05-10 17:53:00
12:53 PM,75.0,32.0,21,30.13,10.0,NNW,10.4,-,N/A,,Clear,340,2013-05-10 18:53:00
1:53 PM,75.9,28.9,18,30.13,10.0,NNW,19.6,25.3,N/A,,Mostly Cloudy,330,2013-05-10 19:53:00
2:26 PM,75.2,30.2,19,30.19,10.0,North,8.1,19.6,N/A,,Clear,360,2013-05-10 20:26:00
2:53 PM,73.0,35.1,25,30.15,10.0,North,29.9,41.4,N/A,,Mostly Cloudy,350,2013-05-10 20:53:00
3:53 PM,72.0,34.0,25,30.17,10.0,NNE,19.6,26.5,N/A,,Clear,20,2013-05-10 21:53:00
4:53 PM,72.0,37.0,28,30.18,10.0,NW,16.1,-,N/A,,Mostly Cloudy,320,2013-05-10 22:53:00
5:53 PM,73.0,34.0,24,30.18,10.0,NNW,18.4,27.6,N/A,,Clear,330,2013-05-10 23:53:00
6:53 PM,71.1,33.1,25,30.19,10.0,NNW,16.1,25.3,N/A,,Clear,330,2013-05-11 00:53:00
7:53 PM,68.0,30.9,25,30.19,10.0,NNW,16.1,-,N/A,,Clear,330,2013-05-11 01:53:00
8:53 PM,63.0,32.0,31,30.21,10.0,NNW,12.7,-,N/A,,Clear,330,2013-05-11 02:53:00
9:53 PM,60.1,30.9,33,30.24,10.0,NW,13.8,-,N/A,,Clear,320,2013-05-11 03:53:00
10:53 PM,57.0,30.0,36,30.25,10.0,NW,11.5,-,N/A,,Clear,320,2013-05-11 04:53:00